This demonstration page uses our WeatherBlox Daily Observations layout. Learn more.

Left ArrowRight Arrow

30.21309, -93.2044

Hourly Observations for May 17, 2022

Temp ( °F °C ) Dew Point ( °F °C ) Humidity (%) Winds ( mph kmh ) Pressure ( in mb ) Visibility ( mi km ) Precip ( " mm )
12:15 am 00:15 Clear 79 26.1 73 22.6 81 81 WSW 9 15 29.96 1015 10 16 0.00 0.00
12:35 am 00:35 Clear 79 25.9 73 22.6 82 82 WSW 7 11 29.96 1015 10 16 0.00 0.00
12:55 am 00:55 Clear 78 25.7 73 22.5 83 83 SW 8 13 29.95 1014 10 16 0.00 0.00
1:15 am 01:15 Clear 78 25.6 73 22.5 83 83 WSW 8 13 29.95 1014 10 16 0.00 0.00
1:35 am 01:35 Clear 78 25.8 73 22.6 83 83 W 7 11 29.96 1015 10 16 0.00 0.00
1:55 am 01:55 Clear 78 25.8 73 22.6 83 83 WSW 9 15 29.96 1015 10 16 0.00 0.00
2:15 am 02:15 Clear 78 25.7 73 22.6 83 83 WSW 8 13 29.95 1014 10 16 0.00 0.00
2:35 am 02:35 Clear 78 25.6 73 22.7 84 84 W 8 13 29.96 1015 10 16 0.00 0.00
2:55 am 02:55 Clear 78 25.6 73 22.9 85 85 W 8 13 29.96 1015 10 16 0.00 0.00
3:15 am 03:15 Clear 78 25.4 73 22.8 86 86 W 7 11 29.95 1014 10 16 0.00 0.00
3:35 am 03:35 Clear 78 25.3 73 22.5 85 85 W 7 11 29.96 1015 10 16 0.00 0.00
3:55 am 03:55 Clear 77 25.2 73 22.5 85 85 WSW 7 11 29.95 1014 10 16 0.00 0.00
4:15 am 04:15 Clear 77 25.1 73 22.5 86 86 W 6 9 29.95 1014 10 16 0.00 0.00
4:35 am 04:35 Clear 77 25.1 72 22.4 85 85 W 7 11 29.95 1014 10 16 0.00 0.00
4:55 am 04:55 Clear 77 24.9 72 22.3 86 86 Calm 29.95 1014 10 16 0.00 0.00
5:15 am 05:15 Clear 77 24.9 72 22.4 86 86 W 6 9 29.96 1015 10 16 0.00 0.00
5:35 am 05:35 Clear 77 24.8 72 22.4 87 87 W 6 9 29.96 1015 10 16 0.00 0.00
6:00 am 06:00 Mostly Clear 77 25 72 22 83 83 WSW 7 11 29.97 1015 10 16 0.00 0.00
6:52 am 06:52 Mostly Sunny 73 23 72 22 94 94 Calm 29.97 1015 7 11 0.00 0.00
7:55 am 07:55 Mostly Sunny 77 25 73 23 89 89 Calm 29.99 1016 7 11 0.00 0.00
8:22 am 08:22 Mostly Cloudy 79 26 73 23 84 84 Calm 30.00 1016 10 16 0.00 0.00
8:50 am 08:50 Mostly Cloudy 81 27 73 23 79 79 WSW 7 11 30.01 1016 10 16 0.00 0.00
9:50 am 09:50 Mostly Cloudy 81 27 72 22 74 74 WSW 6 9 30.03 1017 10 16 0.00 0.00
10:51 am 10:51 Mostly Cloudy 82 28 72 22 70 70 WSW 6 9 30.04 1017 10 16 0.00 0.00
11:47 am 11:47 Mostly Cloudy 86 30 72 22 62 62 Calm 30.05 1018 10 16 0.00 0.00
12:55 pm 12:55 Mostly Cloudy 88 31 70 21 55 55 Calm 30.01 1016 10 16 0.00 0.00
1:51 pm 13:51 Mostly Cloudy 90 32 70 21 52 52 S 8 13 30.00 1016 10 16 0.00 0.00
2:52 pm 14:52 Mostly Cloudy 91 33 70 21 49 49 S 12 19 29.99 1016 10 16 0.00 0.00
3:45 pm 15:45 Partly Cloudy 91 33 70 21 49 49 SSW 12 19 29.98 1015 10 16 0.00 0.00
4:48 pm 16:48 Mostly Sunny 90 32 70 21 52 52 SW 10 17 29.97 1015 10 16 0.00 0.00
5:46 pm 17:46 Mostly Sunny 88 31 70 21 55 55 SSW 10 17 29.97 1015 10 16 0.00 0.00
6:49 pm 18:49 Mostly Sunny 84 29 70 21 62 62 SSW 13 20 29.97 1015 10 16 0.00 0.00
7:51 pm 19:51 Mostly Sunny 82 28 70 21 66 66 SW 12 19 29.97 1015 10 16 0.00 0.00
8:52 pm 20:52 Mostly Clear 79 26 70 21 74 74 SW 9 15 29.98 1015 10 16 0.00 0.00
9:55 pm 21:55 Mostly Clear 77 25 70 21 79 79 SSW 6 9 29.98 1015 10 16 0.00 0.00
10:15 pm 22:15 Clear 76 24.4 70 21 81 81 SSW 6 9 29.98 1015 10 16 0.00 0.00
10:35 pm 22:35 Clear 71 21.5 68 19.8 90 90 SSE 3 6 29.98 1015 10 16 0.00 0.00
10:55 pm 22:55 Clear 69 20.5 67 19.2 92 92 S 5 7 29.98 1015 10 16 0.00 0.00
11:15 pm 23:15 Clear 71 21.8 69 20.3 91 91 S 5 7 29.98 1015 10 16 0.00 0.00
11:35 pm 23:35 undefined 69 20.6 66 19.1 91 91 S 5 7 29.97 1015 N/A 0.00 0.00
11:55 pm 23:55 Clear 69 20.8 67 19.5 92 92 Calm 29.97 1015 10 16 0.00 0.00

Powered by AerisWeather